User: anonymous
Location: Caltech
(34.1382°N, 118.1253°W)
Time: 02:26:27
(UTC-07:00)
Language:

DELTA 2 R/B (1) - Orbit

View from above orbital plane
View from above orbital plane
View from above satellite
View from above satellite

Ground track
Ground track

The orbit data is extracted from the following two-line orbital elements,

1 27665U 03005C   14107.83213264  .00000064  00000-0  59417-4 0    32
2 27665 039.5753 237.2851 0009695 308.9655 166.2219 14.28178801585558
Epoch (UTC): 17 April 2014 19:58:16
Eccentricity: 0.0009695
inclination: 39.5753°
perigee height: 791 km
apogee height: 805 km
right ascension of ascending node: 237.2851°
argument of perigee: 308.9655°
revolutions per day: 14.28178801
mean anomaly at epoch: 166.2219°
orbit number at epoch: 58555

The dashed part of the orbit path shows where the satellite is in the earth's shadow,  

DLR